Winter Park, USA 16 day weather forecast

Slopes altitude range 2745 m - 3675m

Number of lifts: 22 Pistes: 143km

In some cases the lift and piste totals shown are for the ski domain (e.g. Three Valleys) rather than individual resort (e.g. Courchevel)

Overview

The 16 day weather forecast is fully updated 4 times every day.

    • Wed 19 DEC 2018
    • Wed 19
    • -3C -2C
    • Thu 20 DEC 2018
    • Thu 20
    • -7C -7C
    • Fri 21 DEC 2018
    • Fri 21
    • -3C -2C
    • Sat 22 DEC 2018
    • Sat 22
    • -8C -6C
    • Sun 23 DEC 2018
    • Sun 23
    • -11C -9C
    • Mon 24 DEC 2018
    • Mon 24
    • -5C -4C
    • Tue 25 DEC 2018
    • Tue 25
    • -6C -5C
    • Wed 26 DEC 2018
    • Wed 26
    • -1C 1C
    • Thu 27 DEC 2018
    • Thu 27
    • -7C -4C
    • Fri 28 DEC 2018
    • Fri 28
    • -7C -6C
    • Sat 29 DEC 2018
    • Sat 29
    • -11C -5C
    • Sun 30 DEC 2018
    • Sun 30
    • -8C 1C
    • Mon 31 DEC 2018
    • Mon 31
    • -5C 1C
    • Tue 01 JAN 2019
    • Tue 01
    • -5C 1C
    • Wed 02 JAN 2019
    • Wed 02
    • -1C 3C
    • Thu 03 JAN 2019
    • Thu 03
    • 0C 7C

Date:

Time Type 0°C level Temp Chill Snow Cloud Speed Gust Dir Press
3:00 2405m -3°C -3_17 0cm 23% 17mph 39mph 1017mB
6:00 2500m -3°C -3_21 0cm 60% 21mph 39mph 1018mB
9:00 2384m -3°C -3_22 0cm 34% 22mph 45mph 1018mB
12:00 2383m -2°C -2_20 0cm 23% 20mph 44mph 1018mB
15:00 2327m -2°C -2_25 1cm 91% 25mph 52mph 1019mB
18:00 2302m -2°C -2_26 1cm 83% 26mph 48mph 1019mB
21:00 2247m -4°C -4_27 1cm 82% 27mph 53mph 1017mB
0:00 2059m -5°C -5_27 0cm 76% 27mph 55mph 1021mB
3:00 1942m -6°C -6_22 0cm 46% 22mph 41mph 1025mB
6:00 1779m -7°C -7_15 0cm 37% 15mph 34mph 1029mB
9:00 1661m -7°C -7_12 0cm 13% 12mph 31mph 1030mB
12:00 1661m -7°C -7_12 0cm 7% 12mph 30mph 1030mB
15:00 1796m -6°C -6_12 0cm 0% 12mph 31mph 1030mB
18:00 2683m 0°C 0_13 0cm 0% 13mph 28mph 1024mB
21:00 2850m 0°C 0_15 0cm 0% 15mph 30mph 1020mB
0:00 2335m -3°C -3_11 0cm 0% 11mph 29mph 1021mB
3:00 2341m -3°C -3_12 0cm 30% 12mph 33mph 1021mB
6:00 2410m -3°C -3_13 0cm 32% 13mph 36mph 1019mB
9:00 2468m -3°C -3_13 0cm 18% 13mph 38mph 1017mB
12:00 2402m -2°C -2_12 0cm 41% 12mph 29mph 1015mB
15:00 2580m -1°C -1_12 0cm 100% 12mph 41mph 1013mB
18:00 3249m 5°C 5_25 0cm 100% 25mph 45mph 1007mB
21:00 2839m 1°C 1_23 0cm 47% 23mph 43mph 1005mB
0:00 2507m -2°C -2_23 0cm 60% 23mph 50mph 1009mB
3:00 1967m -5°C -5_26 0cm 44% 26mph 46mph 1016mB
6:00 1811m -7°C -7_17 0cm 22% 17mph 40mph 1022mB
9:00 1620m -8°C -8_10 0cm 0% 10mph 29mph 1024mB
12:00 1516m -6°C -6_9 0cm 0% 9mph 18mph 1024mB
15:00 1508m -8°C -8_7 0cm 0% 7mph 10mph 1025mB
18:00 2536m -1°C -1_4 0cm 14% 4mph 12mph 1019mB
21:00 2507m -2°C -2_7 0cm 54% 7mph 19mph 1016mB
0:00 2008m -5°C -5_3 1cm 76% 3mph 9mph 1019mB
3:00 1839m -6°C -6_5 1cm 100% 5mph 14mph 1023mB
6:00 1505m -8°C -8_12 1cm 98% 12mph 34mph 1027mB
9:00 1135m -11°C -11_16 0cm 4% 16mph 40mph 1030mB
12:00 1074m -9°C -9_11 0cm 2% 11mph 31mph 1033mB
15:00 1187m -10°C -10_11 0cm 29% 11mph 29mph 1034mB
18:00 2281m -3°C -3_13 0cm 33% 13mph 29mph 1026mB
21:00 2634m -3°C -3_13 0cm 6% 13mph 30mph 1020mB
0:00 1932m -6°C -6_9 0cm 28% 9mph 28mph 1022mB
3:00 1863m -6°C -6_11 0cm 79% 11mph 38mph 1023mB
6:00 2020m -6°C -6_13 0cm 90% 13mph 40mph 1021mB
9:00 2099m -5°C -5_14 0cm 100% 14mph 41mph 1019mB
12:00 2088m -4°C -4_15 0cm 100% 15mph 43mph 1018mB
15:00 1949m -5°C -5_10 0cm 87% 10mph 32mph 1019mB
18:00 2631m -1°C -1_8 0cm 94% 8mph 18mph 1015mB
21:00 2695m -1°C -1_6 0cm 90% 6mph 12mph 1012mB
0:00 2119m -4°C -4_5 0cm 61% 5mph 6mph 1013mB
3:00 1941m -5°C -5_6 0cm 34% 6mph 7mph 1013mB
6:00 1951m -6°C -6_6 0cm 66% 6mph 7mph 1011mB
9:00 2049m -5°C -5_5 0cm 100% 5mph 5mph 1008mB
12:00 1885m -5°C -5_4 0cm 97% 4mph 5mph 1006mB
15:00 1837m -6°C -6_5 0cm 1% 5mph 6mph 1005mB
18:00 2719m 0°C 0_1 0cm 1% 1mph 5mph 999mB
21:00 2674m -1°C -1_3 0cm 64% 3mph 3mph 996mB
0:00 2045m -5°C -5_3 1cm 83% 3mph 4mph 999mB
3:00 1942m -6°C -6_4 2cm 100% 4mph 7mph 1002mB
6:00 1730m -7°C -7_3 3cm 100% 3mph 5mph 1004mB
9:00 1577m 0°C 0_17 1cm 100% 17mph 29mph 1004mB
12:00 1379m 1°C 1_13 2cm 100% 13mph 25mph 1007mB
15:00 1419m -1°C -1_10 1cm 100% 10mph 21mph 1010mB
18:00 1866m 3°C 3_12 1cm 93% 12mph 18mph 1008mB
21:00 2087m 3°C 3_11 0cm 96% 11mph 16mph 1005mB
0:00 1530m 0°C 0_5 0cm 72% 5mph 6mph 1009mB
3:00 995m -4°C -4_3 0cm 77% 3mph 4mph 1013mB
6:00 892m -5°C -5_5 0cm 39% 5mph 6mph 1015mB
9:00 639m -6°C -6_3 0cm 4% 3mph 4mph 1017mB
12:00 510m -4°C -4_1 0cm 27% 1mph 2mph 1018mB
15:00 802m -5°C -5_3 0cm 93% 3mph 4mph 1020mB
18:00 1185m -2°C -2_8 0cm 96% 8mph 11mph 1017mB
21:00 1202m -2°C -2_9 0cm 100% 9mph 11mph 1015mB
0:00 884m -4°C -4_9 1cm 100% 9mph 12mph 1018mB
3:00 717m -5°C -5_9 1cm 100% 9mph 15mph 1021mB
6:00 644m -6°C -6_9 2cm 100% 9mph 14mph 1023mB
9:00 543m -7°C -7_8 1cm 100% 8mph 12mph 1024mB
12:00 454m -6°C -6_7 2cm 100% 7mph 9mph 1023mB
15:00 340m -7°C -7_6 1cm 100% 6mph 9mph 1025mB
18:00 334m -7°C -7_6 3cm 100% 6mph 8mph 1024mB
Morning 0.15625mm 0 74m -11°C -11_1 1cm 77% 1mph 2mph 1027mB
Afternoon 0.385417mm 0 926m -5°C -5_4 0cm 21% 4mph 4mph 1021mB
Morning 0.333333mm 0 397m -8°C -8_9 0cm 1% 9mph 11mph 1028mB
Afternoon 0.015625mm 0 1922m 1°C 1_4 0cm 5% 4mph 13mph 1019mB
Morning 0.0260417mm 0 1297m -2°C -2_6 0cm 32% 6mph 7mph 1020mB
Afternoon 0.229167mm 0 1704m 1°C 1_4 0cm 14% 4mph 11mph 1023mB
Morning 0.0572917mm 0 904m -5°C -5_4 0cm 16% 4mph 4mph 1028mB
Afternoon 0.00520833mm 0 1731m 1°C 1_3 0cm 67% 3mph 3mph 1019mB
Morning 0mm 0 1895m -2°C -2_5 0cm 31% 5mph 8mph 1016mB
Afternoon 0mm 0 2062m 3°C 3_10 0cm 51% 10mph 20mph 1020mB
Morning 0mm 0 2136m 0°C 0_7 0cm 12% 7mph 9mph 1025mB
Afternoon 0.00520833mm 0 3132m 7°C 7_1 0cm 84% 1mph 4mph 1016mB

16 day outlook at a glance

Forecast issued: 19/12/2018 03:25:30

Chat

Your comments and questions. In a resort? Let us know what it's like!


Characters left 250

For terms and conditions see Readers Comments on the Cookie and privacy policy page.